Regional Weather Roundup
Issued by NWS Sterling, VA

Home | Current Version | Previous Version | Graphics & Text | Print | Product List | Glossary On
Versions: 1 2 3 4 5 6 7 8 9 10 11 12 13 14 15 16 17 18 19 20 21 22 23 24 25 26 27 28 29 30 31 32 33 34 35 36 37 38 39 40 41 42 43 44 45 46 47 48 49 50
000
ASUS41 KLWX 061810
RWRLWX

REGIONAL WEATHER ROUNDUP
NATIONAL WEATHER SERVICE BALTIMORE MD/WASHINGTON DC
100 PM EST SAT FEB 06 2016

Note: "FAIR" indicates few or no clouds below 12,000 feet
with no significant weather and/or obstructions to visibility.
 TC=TEMPERATURE CELSIUS

 * =Non NWS site. Station does not report precipitation (e.g. rain,
    snow, etc.), thunder, or fog.

DCZ001-MDZ009-015-VAZ040>042-051-053>054-061900-
WASHINGTON METRO

CITY           SKY/WX    TMP DP  RH WIND       PRES   REMARKS
WASHINGTON NAT PTSUNNY   42  25  50 S12       30.39F
DULLES         PTSUNNY   41  20  43 S13       30.36F
ANDREWS AFB    PTSUNNY   42  21  44 SW8       30.37F
FT BELVOIR     FAIR      41  19  41 SE7       30.39F
QUANTICO       FAIR      42  26  53 S9        30.41F
COLLEGE PARK*  FAIR      43  19  39 SW6       30.37F
LEESBURG*      FAIR      41  23  48 S12       30.36F
MANASSAS*      SUNNY     43  21  42 SW8       30.38F
GAITHERSBURG*  MOSUNNY   39  18  41 S8        30.39F

$$

MDZ006>007-011-014-061900-
BALTIMORE METRO

CITY           SKY/WX    TMP DP  RH WIND       PRES   REMARKS
BWI AIRPORT    CLOUDY    42  19  39 SW8       30.37F
MD SCIENCE CTR   N/A     43  21  41 MISG      30.40F
MARTIN STATE   PTSUNNY   41  28  60 SE9       30.40F
ANNAPOLIS      PTSUNNY   40  25  55 S8        30.39F
FORT MEADE*    PTSUNNY   43  19  39 SW9       30.39F

$$

MDZ012-015-019>023-061900-
MARYLAND EASTERN SHORE

CITY           SKY/WX    TMP DP  RH WIND       PRES   REMARKS
OCEAN CITY     MOSUNNY   40  27  59 S8        30.41F
SALISBURY      MOSUNNY   42  24  49 VRB3      30.40F
BAY BRIDGE AP*   N/A     41  21  45 CALM      30.39F
CAMBRIDGE*     MOSUNNY   41  21  45 S5        30.39F
EASTON*        PTSUNNY   41  21  45 CALM      30.44F

$$

MDZ017>025-061900-
SOUTHERN MARYLAND

CITY           SKY/WX    TMP DP  RH WIND       PRES   REMARKS
PATUXENT RIVER PTSUNNY   41  25  53 SE9       30.40F
ST INIGOES     CLOUDY    40  22  48 SW7       30.40F
LEONARDTOWN*   CLOUDY    41  21  45 CALM      30.40F

$$

MDZ003>005-061900-
NORTH CENTRAL MARYLAND

CITY           SKY/WX    TMP DP  RH WIND       PRES   REMARKS
FREDERICK*     SUNNY     39  25  56 SW12G17   30.39F
HAGERSTOWN APT SUNNY     41  16  36 S8        30.31F
WESTMINSTER*   MOSUNNY   39  28  65 S10       30.31F

$$

MDZ501>502-061900-
WESTERN MARYLAND

CITY           SKY/WX    TMP DP  RH WIND       PRES   REMARKS
OAKLAND*       SUNNY     34  16  47 W7G18     30.18F
CUMBERLAND*    SUNNY     43  19  39 S10       30.31F

$$

VAZ025>031-061900-
SHENANDOAH VALLEY

CITY           SKY/WX    TMP DP  RH WIND       PRES   REMARKS
WINCHESTER*    FAIR      43  19  39 S9        30.31F
FRONT ROYAL*   FAIR      41  16  36 SW3       30.31F
LURAY*         FAIR      41  14  33 SW9       30.31F
NEW MARKET*    FAIR      40  19  41 SW6       30.31F
STAUNTON*      FAIR      46  16  30 SW13      30.32F
WAYNESBORO*    FAIR      38  11  32 SW6       30.31F

$$

WVZ021-048>050-054>055-061900-
EASTERN WEST VIRGINIA PANHANDLE

CITY           SKY/WX    TMP DP  RH WIND       PRES   REMARKS
MARTINSBURG    FAIR      42  17  36 S8        30.31F
PETERSBURG*    FAIR      44  15  31 CALM      30.28F

$$

VAZ036>039-050-061900-
CENTRAL FOOTHILLS

CITY           SKY/WX    TMP DP  RH WIND       PRES   REMARKS
CHARLOTTESVILL FAIR      42  18  37 S14       30.35F
CULPEPER*      FAIR      42  20  41 SW9       30.38F
ORANGE*        FAIR      43  21  42 S6        30.38F
GORDONSVILLE*  FAIR      42  20  40 S10       30.36F
WARRENTON*     FAIR      44  25  47 S10G17    30.36F

$$

VAZ055>057-061900-
NORTH AND CENTRAL PIEDMONT

CITY           SKY/WX    TMP DP  RH WIND       PRES   REMARKS
FREDERICKSBRG* FAIR      42  20  41 SW8G17    30.38F
STAFFORD*      FAIR      42  21  43 SE7       30.42F

$$

NCZ024-NYZ072-PAZ021-071-VAZ022-071-061900-
OTHER REGIONAL OBSERVATIONS

CITY           SKY/WX    TMP DP  RH WIND       PRES   REMARKS
NEW YORK CITY  MOSUNNY   39  19  44 VRB6      30.37F
PHILADELPHIA   PTSUNNY   40  19  43 SW9       30.38F
PITTSBURGH     MOSUNNY   41  18  39 SW12G20   30.24F
ROANOKE        PTSUNNY   40  16  37 S7        30.36F
RICHMOND       PTSUNNY   42  20  41 W5        30.40F
RALEIGH        PTSUNNY   46  18  32 CALM      30.38F

$$

ANZ530>537-061900-
MARINE OBSERVATIONS

STATION/POSITION TIME  TEMP    WIND        PRES
                       AIR SEA DIR/SP/G
                 (UTC) (F)     (DEG/KT/KT) (MB)
THOMAS PT LIGHT  NOT AVBL
BALT KEY BRIDGE  1700   39     180/  6/  9 1030.1F
COVE POINT       1700   36     180/  7/  8 1031.4F
LEWISETTA        1700   37 41   90/  5/  5 1030.7F
SOLOMONS ISLAND  1700   38 40   90/  5/  6   N/A

$$




USA.gov is the U.S. government's official web portal to all federal, state and local government web resources and services.